Location: Days
(41.3591°N, 106.7339°W)
Time: 05:00:02
(UTC+00:00)

STRAND 1 - Pass Details

Date: 08 July 2022
Orbit: 767 x 781 km, 98.4° (Epoch: 09 August)

Event Time Altitude Azimuth Distance (km) Brightness Sun altitude
Rises 03:56:49 0° 351° (N) 3,263 ? -11.8°
Reaches altitude 10° 04:01:09 10° 316° (NW) 2,325 ? -12.4°
Maximum altitude 04:02:20 11° 302° (WNW) 2,267 ? -12.5°
Drops below altitude 10° 04:03:32 10° 289° (WNW) 2,319 ? -12.7°
Sets 04:07:51 0° 253° (WSW) 3,236 ? -13.2°
